TimeCST,TemperatureF,Dew PointF,Humidity,Sea Level PressureIn,VisibilityMPH,Wind Direction,Wind SpeedMPH,Gust SpeedMPH,PrecipitationIn,Events,Conditions,WindDirDegrees,DateUTC
12:53 AM,42.1,33.1,70,30.06,10.0,Calm,Calm,-,N/A,,Overcast,0,2013-02-14 06:53:00
1:53 AM,42.1,33.1,70,30.06,10.0,Calm,Calm,-,N/A,,Overcast,0,2013-02-14 07:53:00
2:53 AM,42.1,33.1,70,30.06,10.0,NNW,3.5,-,N/A,,Overcast,340,2013-02-14 08:53:00
3:53 AM,42.1,33.1,70,30.05,10.0,Calm,Calm,-,N/A,,Overcast,0,2013-02-14 09:53:00
4:53 AM,42.1,33.1,70,30.07,10.0,Calm,Calm,-,N/A,,Overcast,0,2013-02-14 10:53:00
5:53 AM,41.0,33.1,73,30.09,10.0,Calm,Calm,-,N/A,,Overcast,0,2013-02-14 11:53:00
6:53 AM,41.0,33.1,73,30.12,10.0,Calm,Calm,-,N/A,,Overcast,0,2013-02-14 12:53:00
7:53 AM,43.0,33.1,68,30.11,10.0,Calm,Calm,-,N/A,,Scattered Clouds,0,2013-02-14 13:53:00
8:53 AM,45.0,33.1,63,30.12,10.0,North,5.8,-,N/A,,Clear,10,2013-02-14 14:53:00
9:53 AM,48.0,35.1,61,30.14,10.0,Calm,Calm,-,N/A,,Clear,0,2013-02-14 15:53:00
10:53 AM,51.1,35.1,54,30.12,10.0,NE,5.8,-,N/A,,Clear,40,2013-02-14 16:53:00
11:53 AM,53.1,34.0,48,30.10,10.0,Variable,3.5,-,N/A,,Clear,0,2013-02-14 17:53:00
12:53 PM,54.0,35.1,49,30.07,10.0,West,5.8,-,N/A,,Clear,280,2013-02-14 18:53:00
1:53 PM,55.9,35.1,45,30.08,10.0,West,9.2,-,N/A,,Clear,260,2013-02-14 19:53:00
2:53 PM,57.0,35.1,44,30.05,10.0,West,8.1,-,N/A,,Clear,280,2013-02-14 20:53:00
3:53 PM,57.0,32.0,39,30.05,10.0,NNW,6.9,-,N/A,,Clear,340,2013-02-14 21:53:00
5:53 PM,48.9,36.0,61,30.07,10.0,Calm,Calm,-,N/A,,Clear,0,2013-02-14 23:53:00
6:53 PM,44.1,37.9,79,30.09,10.0,Calm,Calm,-,N/A,,Clear,0,2013-02-15 00:53:00
7:53 PM,42.1,37.9,85,30.10,10.0,Calm,Calm,-,N/A,,Clear,0,2013-02-15 01:53:00
8:53 PM,39.0,37.0,93,30.10,10.0,Calm,Calm,-,N/A,,Clear,0,2013-02-15 02:53:00
9:53 PM,37.9,36.0,93,30.12,10.0,Calm,Calm,-,N/A,,Clear,0,2013-02-15 03:53:00
10:53 PM,37.0,35.1,93,30.12,8.0,Calm,Calm,-,N/A,,Clear,0,2013-02-15 04:53:00
11:53 PM,36.0,34.0,93,30.11,7.0,Calm,Calm,-,0.00,,Clear,0,2013-02-15 05:53:00